Regional Weather Roundup
Issued by NWS

Home | Current Version | Previous Version | Graphics & Text | Print | Product List | Glossary On
Versions: 1 2 3 4 5 6 7 8 9 10 11 12 13 14 15 16 17 18 19 20 21 22 23 24 25 26 27 28 29 30 31 32 33 34 35 36 37 38 39 40 41 42 43 44 45 46 47 48 49 50
000
ASUS45 KBOI 270610
RWRID

IDAHO REGIONAL WEATHER ROUNDUP
NATIONAL WEATHER SERVICE BOISE ID
1200 AM MDT THU AUG 27 2015

NOTE: "FAIR" INDICATES FEW OR NO CLOUDS BELOW 12000 FEET
WITH NO SIGNIFICANT WEATHER AND/OR OBSTRUCTIONS TO VISIBILITY

IDZ012-014-270700-
SOUTHWEST IDAHO


CITY           SKY/WX    TMP DP  RH WIND       PRES   REMARKS
BOISE          CLOUDY    85  47  26 SE12      30.00R
CALDWELL       CLOUDY    79  45  29 SE15      29.99R
MOUNTAIN HOME  PTCLDY    76  49  37 SE16      30.04R
$$

IDZ016-017-270700-
SOUTHCENTRAL IDAHO


CITY           SKY/WX    TMP DP  RH WIND       PRES   REMARKS
BURLEY         PTCLDY    69  48  47 E6        30.18S
JEROME         PTCLDY    71  45  39 N15G24    30.16S
TWIN FALLS     PTCLDY    70  46  42 E12       30.19F
$$

IDZ019>023-270700-
SOUTHEAST IDAHO


CITY           SKY/WX    TMP DP  RH WIND       PRES   REMARKS
IDAHO FALLS    PTCLDY    58  51  78 CALM      30.22S
POCATELLO      PTCLDY    58  50  75 S8        30.20S
REXBURG        PTCLDY    60  51  72 E5        30.22F
$$

IDZ006-010-011-018-031-032-270700-
CENTRAL IDAHO MOUNTAINS


CITY           SKY/WX    TMP DP  RH WIND       PRES   REMARKS
MCCALL         CLOUDY    67  41  38 CALM      30.14R
HAILEY         CLOUDY    61  50  67 NW17G24   30.29F
STANLEY          N/A     60  44  55 SE10      30.36S
SALMON         CLOUDY    75  45  33 S22G28    30.11S
CHALLIS        CLOUDY    65  48  54 S20G26    30.25F
$$

IDZ002-004-006-007-026-270700-
NORTHERN IDAHO


CITY           SKY/WX    TMP DP  RH WIND       PRES   REMARKS
LEWISTON       CLEAR     77  37  23 S8        29.91S
LOWELL           N/A     65  60  84 N3        29.95R
COEUR D`ALENE  CLEAR     70  48  46 NE5       29.95R
MULLAN PASS    CLOUDY    67  35  30 NW6       30.20S HAZE
$$


USA.gov is the U.S. government's official web portal to all federal, state and local government web resources and services.